Location: Couloutre
(47.4081°N, 3.2259°E)
Time: 16:10:23
(UTC+00:00)

STARLINK-1023 - Pass Details

Date: 27 February 2020
Orbit: 559 x 560 km, 53.0° (Epoch: 07 April)

Event Time Altitude Azimuth Distance (km) Brightness Sun altitude
Rises 18:46:36 0° 286° (WNW) 2,750 8.9 -14.0°
Reaches altitude 10° 18:48:58 10° 294° (WNW) 1,854 7.5 -14.4°
Maximum altitude 18:52:55 38° 3° (N) 868 4.6 -15.1°
Enters shadow 18:55:05 22° 58° (ENE) 1,248 5.0 -15.5°
